Volver al catálogo

FENGYUN 1C DEB

ActivoSSO
NORAD 29770·DEBRIS·🇨🇳 China

Lanzado May 10, 1999 desde Taiyuan Satellite Launch Center

Loading…

Próximos Pases (próximas 24 horas)

TLE

ActualizadoSource: Space-Track

Época: Sep 12, 2026, 17:12 UTC

1 29770U 99025BL  26255.71670729  .00001743  00000-0  79923-3 0  9997
2 29770  98.8335 336.3708 0062013 204.3552 309.6116 14.21627879  9749

Sigue FENGYUN 1C DEB en tiempo real con AllMySat

Download on the App Store